Theta_e
317 318 317 318 318 317 317 317 317 318 318 317 318 318 319 318 318 319 319 319 318 319 322 322 323 322 321 317 317 333 352 350 328 325 323 324 319 325 321 320 320 321 323 324 327 327 326
317 316 316 317 317 316 316 316 316 317 317 317 317 318 318 318 318 318 319 318 317 318 322 323 322 319 319 313 327 331 325 324 324 324 324 324 322 328 323 320 319 324 324 323 325 324 326
316 316 316 316 316 316 315 315 315 316 316 316 317 317 317 317 317 317 317 316 316 318 322 321 321 321 321 316 327 331 327 321 324 325 322 324 326 326 323 319 326 324 320 322 322 325 324
315 315 315 315 315 316 315 315 315 316 316 316 316 317 317 317 317 317 316 316 316 320 322 321 322 324 319 329 329 329 327 322 322 325 324 326 331 325 322 324 322 320 321 314 322 324 322
314 314 314 314 315 316 316 316 315 316 316 316 316 316 316 316 316 315 314 314 316 323 322 322 324 324 321 328 322 329 328 319 320 323 324 327 329 321 321 316 317 318 312 315 318 323 322
314 314 314 315 315 315 315 315 315 315 315 315 315 315 315 315 315 314 313 314 322 324 325 327 326 321 327 323 322 326 328 322 320 320 320 323 322 316 316 315 308 312 313 316 316 321 323
313 313 314 314 314 314 315 314 315 315 315 315 315 314 314 314 313 312 313 317 325 326 327 322 320 318 321 328 327 322 325 319 319 317 314 320 313 310 313 316 318 318 316 315 318 323 322
314 314 315 314 314 314 314 314 314 315 315 315 314 314 314 313 312 312 313 314 322 323 316 322 324 324 325 324 317 318 323 315 314 311 316 315 310 315 317 318 316 315 314 314 318 322 321
315 315 314 313 314 314 314 314 314 314 314 314 314 314 313 312 311 314 317 322 327 325 316 317 321 319 322 323 317 316 319 316 312 312 313 311 313 317 316 314 313 314 311 312 314 319 319
315 314 314 313 313 314 314 313 314 314 314 314 314 313 312 310 310 314 315 325 329 327 309 311 315 318 321 321 315 320 321 317 314 311 314 313 317 315 314 312 313 309 314 314 313 313 308
315 314 314 314 314 314 313 313 313 313 313 313 313 313 311 309 310 310 317 321 323 322 297 313 314 324 321 317 317 316 321 317 312 313 313 310 312 313 312 313 315 311 315 313 313 311 310
314 314 314 314 314 313 313 312 313 312 313 313 313 312 311 312 313 317 321 322 319 308 298 310 315 314 314 316 315 317 316 318 318 314 314 313 317 315 314 315 315 316 316 314 313 310 304
314 314 314 314 314 313 312 312 312 312 312 312 311 309 309 312 308 316 316 315 305 301 312 308 310 313 313 312 311 314 311 310 308 306 306 311 312 316 317 313 316 315 312 305 303 303 302
314 314 313 313 313 313 313 312 312 312 312 311 308 307 312 314 315 314 315 307 300 308 308 314 313 313 309 312 310 311 310 307 312 311 308 305 304 313 316 314 312 312 312 305 300 301 304
313 313 313 313 313 313 313 312 312 312 311 310 307 314 314 321 320 317 309 301 304 307 313 311 313 308 308 311 310 310 309 307 311 313 308 306 307 316 316 317 317 312 309 314 308 309 304
313 312 313 313 313 313 313 312 312 312 311 309 309 311 312 318 323 315 305 300 307 312 313 315 308 311 306 308 307 309 308 311 311 315 317 313 308 314 315 317 317 315 316 307 308 302 300
311 311 311 312 313 313 313 313 312 311 310 309 312 311 318 320 323 309 300 304 309 313 315 313 312 311 309 308 309 309 309 312 314 314 317 315 313 311 314 312 310 312 311 311 311 308 302
310 311 311 312 312 313 313 313 312 310 309 309 309 303 319 323 310 308 303 308 308 311 316 315 315 313 312 313 309 309 309 312 316 316 312 316 313 308 310 316 317 315 313 313 307 307 309
309 310 310 312 312 313 313 313 312 310 309 307 305 308 319 321 304 305 309 309 311 310 313 313 311 314 315 313 310 311 311 316 318 316 315 316 311 306 308 312 315 311 314 313 312 312 310
310 310 310 310 311 312 312 312 311 310 309 308 306 303 309 314 312 308 307 308 308 313 313 315 313 315 312 312 315 311 311 314 317 317 327 319 312 311 303 309 313 310 311 312 311 308 309
309 309 309 310 310 310 312 312 311 311 309 308 309 305 313 307 307 308 309 310 310 308 313 316 313 312 312 311 312 311 313 313 315 319 317 316 313 311 310 311 311 311 311 311 309 311 308
308 308 308 309 309 310 311 311 311 311 309 310 306 303 308 306 311 313 307 309 311 312 312 311 310 312 313 311 315 314 316 317 313 316 314 316 312 312 308 311 311 309 311 312 312 311 311
308 308 308 308 308 309 309 311 312 311 309 309 310 307 306 305 308 308 310 311 312 314 314 314 314 314 312 314 320 321 320 320 319 318 316 317 311 312 306 310 310 306 310 311 312 314 313
308 308 308 307 307 308 308 309 311 312 310 307 311 306 303 302 305 307 309 311 311 313 311 314 315 314 320 322 323 322 319 319 320 319 319 319 319 314 307 312 301 311 317 315 313 315 316
308 308 308 308 307 308 308 309 310 312 312 308 311 308 302 299 306 306 307 308 311 313 312 312 316 320 321 318 314 311 312 313 314 318 318 313 319 311 307 305 309 312 315 315 312 314 319
307 308 308 308 307 307 308 308 309 311 312 310 310 313 305 300 303 305 303 306 305 308 310 312 318 320 317 313 310 306 303 307 308 311 319 316 319 314 311 304 301 313 317 321 319 308 321
307 307 308 308 308 308 308 308 309 310 311 310 309 315 307 300 306 304 302 303 308 308 308 312 313 313 316 310 306 304 304 311 305 306 311 311 313 308 307 305 307 317 319 320 306 307 321
307 307 307 307 307 307 308 308 308 309 311 310 308 315 307 302 304 305 306 303 305 309 304 309 309 310 311 308 306 306 306 308 309 314 309 311 309 307 310 306 304 321 318 312 325 327 324
307 307 307 307 307 308 308 308 308 309 311 310 306 312 312 305 305 309 308 310 308 308 306 308 309 316 314 311 311 311 307 309 312 303 315 308 312 313 314 310 320 324 324 326 326 328 325
Wind_Speed
19 19 19 19 19 19 21 21 22 21 22 23 23 23 22 22 23 23 21 21 21 20 17 13 10 7 8 10 20 8 11 7 11 12 17 16 14 18 18 7 3 9 14 9 13 16 17
18 18 18 19 18 19 21 22 23 22 23 23 23 23 23 22 22 22 22 20 21 19 16 10 8 5 7 15 8 15 14 14 15 17 18 17 16 19 15 4 8 12 11 10 15 12 12
18 19 19 19 19 19 20 21 22 23 23 23 23 23 23 24 24 24 23 22 21 18 12 7 7 7 12 18 4 14 14 18 18 19 18 17 20 14 13 8 10 9 10 9 12 16 12
18 18 19 19 19 19 20 21 21 22 22 23 23 24 24 24 25 24 23 22 21 15 10 6 7 9 10 16 12 11 13 18 19 18 20 15 14 15 17 4 5 13 14 12 18 19 4
18 18 19 19 19 19 20 20 21 21 22 23 23 24 24 25 25 25 24 24 21 13 10 6 7 8 18 7 14 12 17 19 20 17 18 9 9 16 16 12 11 14 13 14 16 20 11
18 18 19 19 19 19 20 21 21 21 22 23 24 24 25 25 25 25 27 27 7 7 9 9 11 11 13 15 16 16 19 19 19 16 15 9 8 16 19 12 15 17 17 21 15 14 15
18 19 19 19 19 20 20 21 22 22 22 23 24 25 26 26 26 22 18 6 7 7 9 13 8 13 5 18 18 15 18 21 19 19 19 17 15 17 18 18 18 15 13 17 16 19 26
15 16 17 18 19 20 21 21 22 22 22 23 24 25 26 28 29 22 10 9 18 14 16 18 23 23 19 15 12 18 21 20 18 20 21 17 20 21 18 20 20 19 11 12 13 16 11
16 16 15 18 18 18 20 22 22 22 22 23 24 25 26 29 33 12 11 19 16 17 15 25 22 23 19 11 15 20 20 21 21 23 22 20 21 22 18 15 16 16 10 10 15 12 4
14 16 16 18 19 19 18 21 22 22 23 23 24 25 24 30 10 13 13 12 7 15 11 19 23 25 23 17 17 22 23 21 17 23 21 23 22 21 18 17 17 18 11 18 15 14 11
14 15 16 17 19 19 19 20 21 23 23 24 23 23 23 10 15 9 15 18 13 12 9 10 23 16 19 21 17 20 24 23 20 19 18 21 21 23 21 19 16 12 16 18 13 11 14
15 16 16 16 19 19 20 21 21 23 23 24 25 23 20 14 9 17 19 16 12 9 11 5 15 16 24 20 22 21 22 24 21 19 21 22 17 19 20 19 16 18 10 17 9 11 15
16 15 17 17 19 19 20 21 22 23 24 25 26 26 15 11 9 9 16 9 9 11 16 13 20 21 22 17 24 22 25 25 23 18 21 23 25 15 13 18 20 18 11 8 9 12 13
16 16 15 17 19 20 20 21 23 24 25 27 28 33 11 12 13 16 7 9 16 15 25 22 17 21 22 22 24 24 25 22 27 23 16 16 19 20 16 21 15 13 16 9 13 12 13
17 17 17 18 20 20 20 21 23 25 27 28 33 9 12 10 16 10 8 13 16 22 21 24 19 14 21 23 21 21 24 24 25 27 21 18 21 21 22 17 16 15 18 18 18 12 6
17 17 18 19 20 20 20 21 22 26 28 29 10 9 13 15 18 9 10 19 22 27 30 17 16 15 20 22 26 25 25 24 25 25 26 18 15 21 17 15 15 16 17 13 12 9 10
17 17 17 18 19 20 21 21 22 25 29 35 6 8 4 15 10 9 13 20 24 29 23 19 14 17 14 18 25 21 21 22 27 28 27 25 17 19 22 15 21 15 11 9 12 11 9
16 17 17 18 18 19 20 21 21 23 27 13 7 7 10 12 10 10 15 23 27 25 26 15 14 19 18 20 22 26 26 25 28 28 27 24 8 13 26 20 23 21 16 10 9 9 8
15 16 17 18 18 19 20 20 19 19 15 10 7 11 9 11 13 13 19 24 27 24 22 19 16 21 20 21 18 24 26 24 25 27 25 18 13 10 14 20 20 17 16 19 17 13 12
14 15 17 18 19 20 20 20 20 19 13 8 6 7 11 12 14 20 19 23 23 22 25 20 13 17 22 20 19 19 23 22 26 26 6 14 18 13 14 15 16 22 22 22 19 12 13
13 16 18 19 18 19 20 21 22 22 20 7 6 8 10 8 13 18 21 20 20 21 20 18 14 23 12 14 15 17 18 23 23 11 16 14 11 15 17 20 19 17 23 20 20 19 17
12 13 16 18 19 20 20 21 22 24 32 6 7 8 13 14 20 15 13 22 20 18 18 21 18 20 17 18 9 11 16 12 21 17 12 10 8 11 18 18 18 21 22 23 24 23 23
14 13 13 16 18 19 19 20 21 20 21 7 8 9 8 10 16 12 12 11 17 22 15 9 5 8 13 17 14 7 10 11 6 10 15 14 13 13 15 17 20 21 20 21 17 17 15
15 15 14 15 17 18 19 19 19 18 13 9 11 6 6 11 13 12 11 10 14 7 11 18 5 8 12 17 17 10 11 6 4 3 11 10 14 12 14 17 21 16 19 17 14 15 15
17 15 16 15 15 17 18 19 18 18 15 10 11 5 4 10 16 11 8 10 13 7 13 9 12 9 12 13 11 7 8 9 11 10 4 14 5 11 14 15 14 20 6 8 17 17 9
17 16 16 16 14 15 16 17 18 18 16 10 11 4 5 5 9 19 14 13 11 11 12 14 9 5 11 9 10 11 12 5 11 14 22 23 30 20 4 11 18 14 10 6 17 12 18
18 16 15 16 15 14 16 16 17 17 16 11 10 5 6 6 2 17 12 11 14 12 10 1 4 7 13 9 11 14 15 14 17 15 13 13 8 11 11 12 17 12 7 13 8 11 14
17 16 15 15 14 13 14 15 15 16 16 10 10 5 5 7 11 9 15 12 14 10 9 13 7 8 9 11 12 12 13 12 16 15 9 16 4 9 13 14 17 12 10 10 9 8 7
16 15 14 14 14 14 13 14 14 14 15 12 10 9 7 8 11 12 12 9 9 9 8 10 10 7 7 7 3 7 12 11 4 10 13 9 10 9 4 3 21 12 16 16 7 8 8
Wind_Direction
9 8 8 8 7 4 360 358 355 352 349 347 343 339 337 335 334 331 330 328 326 323 320 310 304 313 278 224 252 142 131 148 163 204 221 236 234 248 250 201 199 117 88 86 104 150 84
7 7 4 5 6 3 358 354 353 350 348 344 341 337 335 333 331 329 327 324 323 319 313 302 300 307 253 250 214 144 175 177 197 203 218 236 234 242 279 127 242 100 136 168 108 89 117
4 3 2 2 1 359 356 352 349 346 344 343 339 336 334 330 329 327 323 320 318 312 304 297 290 259 258 242 226 159 177 192 209 203 218 229 245 272 256 183 125 127 135 129 145 111 54
2 1 359 358 358 353 350 349 346 343 341 340 338 334 332 328 325 322 319 314 311 299 287 283 282 252 264 225 235 216 200 190 216 211 231 220 254 271 254 139 191 169 170 177 134 110 77
0 359 359 355 354 349 346 344 343 341 339 337 335 333 330 326 323 320 316 308 299 279 265 253 248 230 258 125 206 225 213 191 206 209 229 273 216 253 247 208 192 209 197 153 124 125 153
356 354 351 350 349 345 344 341 340 339 337 335 333 331 328 325 321 321 318 297 298 250 225 224 258 263 246 223 196 203 199 193 203 199 219 213 213 234 240 183 210 201 216 163 158 179 157
351 348 346 342 344 342 340 339 337 337 335 334 331 329 326 322 318 323 330 293 217 183 219 248 208 233 200 215 170 188 192 190 197 208 207 204 214 219 217 203 228 212 221 155 244 153 163
339 339 339 342 338 338 335 336 334 333 332 331 330 328 325 320 315 312 286 256 287 330 301 276 252 246 271 174 168 186 192 193 198 204 205 195 217 221 222 214 234 238 204 203 202 154 178
332 338 334 337 331 335 332 332 331 330 329 329 328 326 325 321 314 285 236 268 291 297 282 280 256 230 228 190 192 189 197 202 197 208 202 208 212 233 233 215 229 252 240 221 199 149 176
334 335 335 330 330 328 332 330 327 327 326 327 326 325 326 330 288 335 277 262 335 299 278 260 220 224 204 210 217 186 191 210 197 211 206 227 212 221 234 231 206 233 216 262 230 176 211
329 329 332 332 328 329 329 328 324 324 323 323 322 321 322 319 305 285 303 334 336 284 273 182 191 176 188 199 204 190 184 210 212 212 219 213 233 211 225 234 232 240 227 231 239 240 234
327 326 331 335 330 330 326 325 323 323 321 320 317 316 328 304 211 253 289 297 275 239 244 188 149 185 188 193 216 186 187 215 234 216 221 237 218 224 210 227 221 223 256 205 224 254 252
328 326 332 333 325 325 325 326 324 322 320 318 313 307 296 283 246 340 335 295 230 240 242 273 159 186 197 187 206 196 188 204 217 218 218 221 232 200 210 204 214 213 205 207 225 230 243
326 327 330 329 326 324 325 328 324 322 321 319 314 305 252 219 227 256 249 256 239 237 244 267 173 184 209 189 206 192 189 201 217 221 214 210 221 198 200 216 200 192 222 215 207 231 229
327 331 335 331 328 327 327 328 324 323 323 322 313 285 253 219 220 244 233 231 224 243 251 241 258 201 202 201 206 189 195 206 208 224 228 197 228 186 208 224 188 183 234 243 259 265 253
328 335 339 336 329 329 329 329 329 326 325 321 311 287 253 241 161 194 224 242 250 245 260 299 281 234 203 201 208 189 194 205 216 216 237 195 224 186 208 206 224 219 206 233 250 261 282
331 336 336 332 329 330 331 332 332 330 329 316 261 265 274 161 156 211 223 230 240 259 275 279 272 285 244 203 208 200 201 210 213 213 228 238 208 189 192 191 216 207 230 217 248 229 255
329 335 331 330 329 330 331 333 334 334 334 323 297 257 149 164 207 226 228 236 262 250 239 246 256 278 293 288 223 220 202 202 201 217 220 236 245 251 194 194 206 226 196 214 246 254 283
326 328 328 331 331 336 338 335 335 335 354 319 283 276 239 221 237 232 230 241 257 253 255 262 226 250 267 270 276 230 225 201 204 212 217 219 236 246 237 198 196 222 217 213 223 241 259
322 327 328 329 332 336 339 337 335 330 337 313 278 266 214 211 244 255 243 234 239 246 246 272 271 269 247 259 271 268 211 230 211 204 196 215 214 230 246 232 195 200 216 233 252 234 237
322 327 327 328 331 337 337 338 335 329 328 288 246 272 9 275 221 229 256 265 263 234 228 257 266 276 262 259 257 261 253 214 220 186 190 216 226 238 233 260 268 239 209 218 238 264 270
310 319 322 324 330 336 339 339 338 337 330 222 306 344 339 301 289 283 242 248 267 255 229 223 229 264 249 258 304 348 348 288 214 158 173 192 211 235 253 254 244 252 265 207 213 225 243
300 302 314 319 325 331 337 338 339 348 343 323 6 319 299 292 286 277 254 256 254 278 228 235 192 294 284 347 347 328 311 314 346 177 190 192 204 223 240 242 256 256 247 251 238 226 236
294 293 299 312 321 326 332 337 338 345 354 320 297 332 286 280 269 285 334 316 290 335 351 337 183 272 11 331 311 256 268 268 135 15 348 231 219 207 234 243 243 250 265 252 246 241 241
287 289 295 296 312 320 326 331 334 336 343 320 297 321 312 297 322 320 327 315 307 319 285 289 310 12 327 304 289 257 243 227 190 150 103 343 254 213 228 231 244 252 313 36 36 325 292
285 283 287 293 297 311 318 325 330 331 339 323 304 329 295 312 14 343 320 303 300 272 260 266 276 326 307 279 274 259 246 189 225 198 186 197 168 255 264 250 255 263 180 88 359 312 11
280 284 284 290 290 297 310 319 326 328 336 322 284 336 287 278 306 343 0 333 326 330 293 262 254 306 239 256 246 251 238 244 228 239 227 230 212 240 220 248 265 289 112 102 170 247 311
277 279 278 284 286 290 299 310 321 328 335 331 303 294 311 306 294 324 337 336 331 338 328 360 272 211 275 235 241 245 255 238 240 235 209 274 272 257 247 250 247 338 92 149 76 92 35
274 273 279 279 282 284 285 301 315 324 330 337 287 344 330 278 291 314 292 296 290 303 322 326 310 5 7 294 319 278 259 275 250 270 309 211 168 167 313 13 329 58 93 100 85 71 48